Location: Berbisdorf
(50.7638°N, 12.9442°E)
Time: 11:05:07
(UTC+00:00)

STARLINK-60 - Pass Details

Date: 07 June 2020
Orbit: 382 x 390 km, 53.0° (Epoch: 10 July)

Event Time Altitude Azimuth Distance (km) Brightness Sun altitude
Rises 00:32:45 0° 289° (WNW) 2,276 6.8 -14.1°
Reaches altitude 10° 00:34:51 10° 284° (WNW) 1,421 5.7 -14.0°
Maximum altitude 00:37:55 48° 209° (SSW) 520 3.1 -13.8°
Drops below altitude 10° 00:41:00 10° 133° (SE) 1,425 5.5 -13.6°
Sets 00:43:06 0° 128° (SE) 2,282 6.6 -13.5°
